GW4575 Weather Reports


Display with metric or nautical units.
time (UTC)temp
F
wind
direction
speed
MPH
gust
MPH
rain 1hr
in
rain 24hr
in
rain mn
in
humidity
%
barometer
mb
20260504173919 53 270 12.0 21.0 0.00 0.08 0.08 67 995.0
20260504173416 53 290 13.0 19.0 0.00 0.08 0.08 67 994.6
20260504172913 53 304 13.0 21.0 0.00 0.08 0.08 68 994.9
20260504172409 54 283 12.0 19.0 0.00 0.08 0.08 68 994.8
20260504171905 53 254 11.0 18.0 0.00 0.08 0.08 70 994.8
20260504171403 52 285 6.0 16.0 0.00 0.08 0.08 70 994.5
20260504170859 52 239 5.0 18.0 0.00 0.08 0.08 72 994.6
20260504170355 51 285 12.0 24.0 0.00 0.08 0.08 73 994.4
20260504160315 49 301 9.0 13.0 0.00 0.08 0.08 86 993.9
20260504150740 44 277 4.0 7.0 0.00 0.07 0.07 97 993.8
20260504150236 44 323 4.0 7.0 0.07 0.07 0.07 97 993.8
20260504141206 45 268 9.0 11.0 0.05 0.01 0.01 89 993.9
20260504140703 46 302 9.0 17.0 0.00 0.00 0.00 85 993.7
20260504140158 48 323 7.0 15.0 0.00 0.00 0.00 78 993.5
20260504130626 62 233 3.0 10.0 0.00 0.00 0.00 41 990.7
20260504130123 61 303 5.0 8.0 0.00 0.00 0.00 41 990.4
20260504110515 57 232 1.0 3.0 0.00 0.00 0.00 41 992.9
20260504100436 56 210 2.0 10.0 0.00 0.00 0.00 40 993.6
20260504081829 53 230 2.0 8.0 0.00 0.00 0.00 42 996.6
20260504081326 53 146 2.0 6.0 0.00 0.00 0.00 41 996.8
20260504080821 52 212 6.0 9.0 0.00 0.00 0.00 41 997.1
20260504080319 52 242 0.0 1.0 0.00 0.00 0.00 43 997.3
20260504070246 50 231 2.0 3.0 0.00 0.00 0.00 43 998.3
20260504060207 49 182 2.0 3.0 0.00 0.00 0.00 40 999.7
20260504050635 51 234 0.0 2.0 0.00 0.00 0.00 35 1000.9
20260504050132 51 221 1.0 4.0 0.00 0.00 0.00 35 1001.0
20260504045629 51 175 1.0 2.0 0.00 0.00 0.00 35 1001.1
20260504045129 51 129 0.0 2.0 0.00 0.00 0.00 35 1001.2
20260504044627 50 209 1.0 1.0 0.00 0.00 0.00 35 1001.6
20260504044124 50 185 0.0 2.0 0.00 0.00 0.00 37 1001.5
20260504043621 49 200 0.0 2.0 0.00 0.00 0.00 38 1001.6
20260504043118 49 207 0.0 1.0 0.00 0.00 0.00 39 1001.9
20260504042615 49 209 0.0 1.0 0.00 0.00 0.00 42 1001.9
20260504042112 49 217 0.0 2.0 0.00 0.00 0.00 39 1002.1
20260504041608 49 118 1.0 2.0 0.00 0.00 0.00 40 1002.1
20260504041104 49 195 0.0 1.0 0.00 0.00 0.00 39 1002.1
20260504040602 49 171 0.0 2.0 0.00 0.00 0.00 37 1002.1
20260504040058 49 199 0.0 0.0 0.00 0.00 0.00 38 1002.3
20260504035555 50 200 0.0 1.0 0.00 0.00 0.00 38 1002.4
20260504035051 50 184 0.0 1.0 0.00 0.00 0.00 37 1002.5
20260504034549 50 217 0.0 2.0 0.00 0.00 0.00 36 1002.7
20260504034046 50 226 0.0 2.0 0.00 0.00 0.00 36 1002.9
20260504033544 49 244 0.0 3.0 0.00 0.00 0.00 37 1002.9
20260504033041 49 222 0.0 1.0 0.00 0.00 0.00 39 1003.0
20260504032538 49 84 3.0 3.0 0.00 0.00 0.00 38 1003.1
20260504032035 49 251 0.0 1.0 0.00 0.00 0.00 36 1003.4
20260504031532 49 169 1.0 1.0 0.00 0.00 0.00 39 1003.4
20260504031028 49 239 0.0 0.0 0.00 0.00 0.00 38 1003.5
20260504030525 49 313 1.0 2.0 0.00 0.00 0.00 38 1003.5
20260504030021 50 257 0.0 0.0 0.00 0.00 0.00 39 1003.5
20260504025519 50 283 0.0 0.0 0.00 0.00 0.00 37 1003.6
20260504025015 50 232 0.0 0.0 0.00 0.00 0.00 37 1003.5
20260504024512 51 303 0.0 0.0 0.00 0.00 0.00 38 1003.6
20260504024009 51 257 0.0 1.0 0.00 0.00 0.00 36 1003.7
20260504023506 51 241 0.0 0.0 0.00 0.00 0.00 36 1003.7
20260504023001 51 220 1.0 1.0 0.00 0.00 0.00 35 1003.6
20260504022457 51 222 0.0 0.0 0.00 0.00 0.00 37 1003.7
20260504021954 51 234 0.0 0.0 0.00 0.00 0.00 36 1003.7
20260504021452 51 271 0.0 0.0 0.00 0.00 0.00 37 1003.8
20260504020949 51 262 0.0 1.0 0.00 0.00 0.00 37 1003.8
20260504020445 51 226 0.0 0.0 0.00 0.00 0.00 37 1003.9
20260504015942 51 238 0.0 0.0 0.00 0.00 0.00 37 1003.7
20260504015438 51 251 0.0 0.0 0.00 0.00 0.00 38 1003.7
20260504014934 51 292 0.0 1.0 0.00 0.00 0.00 37 1003.9
20260504014430 51 260 0.0 0.0 0.00 0.00 0.00 37 1003.8
20260504013927 51 224 0.0 1.0 0.00 0.00 0.00 37 1003.9
20260504013426 52 245 0.0 0.0 0.00 0.00 0.00 36 1003.9
20260504012926 51 23 0.0 2.0 0.00 0.00 0.00 38 1004.0
20260504012425 51 269 0.0 1.0 0.00 0.00 0.00 36 1004.2
20260504011922 52 276 0.0 1.0 0.00 0.00 0.00 36 1004.1
20260504011419 52 252 0.0 0.0 0.00 0.00 0.00 36 1003.9
20260504010914 53 274 0.0 3.0 0.00 0.00 0.00 37 1004.2
20260504010411 53 271 1.0 4.0 0.00 0.00 0.00 35 1004.3
20260504005907 54 271 0.0 2.0 0.00 0.00 0.00 36 1004.2
20260504005403 54 266 1.0 2.0 0.00 0.00 0.00 34 1004.2
20260504004901 55 260 2.0 3.0 0.00 0.00 0.00 34 1004.2
20260504004359 55 302 2.0 2.0 0.00 0.00 0.00 35 1004.4
20260504003855 55 230 2.0 4.0 0.00 0.00 0.00 34 1004.1
20260504003352 55 282 1.0 4.0 0.00 0.00 0.00 33 1004.1
20260504002848 56 293 3.0 7.0 0.00 0.00 0.00 32 1004.2
20260504002345 57 288 4.0 6.0 0.00 0.00 0.00 31 1004.2
20260504001843 57 257 3.0 6.0 0.00 0.00 0.00 32 1004.5
20260504001340 57 306 2.0 8.0 0.00 0.00 0.00 32 1004.4
20260504000837 57 313 3.0 4.0 0.00 0.00 0.00 32 1004.6
20260504000334 58 314 3.0 4.0 0.00 0.00 0.00 33 1004.3
20260503235831 58 280 4.0 7.0 0.00 0.00 0.00 31 1004.4
20260503235329 58 258 4.0 7.0 0.00 0.00 0.00 31 1004.6
20260503234826 58 305 6.0 13.0 0.00 0.00 0.00 30 1004.5
20260503234324 59 271 6.0 9.0 0.00 0.00 0.00 31 1004.6
20260503233821 59 288 3.0 9.0 0.00 0.00 0.00 32 1004.4
20260503233317 59 276 4.0 10.0 0.00 0.00 0.00 30 1004.3
20260503232814 59 255 3.0 7.0 0.00 0.00 0.00 30 1004.2
20260503232311 59 255 2.0 9.0 0.00 0.00 0.00 32 1004.3
20260503231809 59 256 5.0 10.0 0.00 0.00 0.00 30 1004.2
20260503231306 60 259 8.0 10.0 0.00 0.00 0.00 29 1004.4
20260503230802 60 263 4.0 6.0 0.00 0.00 0.00 32 1004.3
20260503230259 59 277 7.0 10.0 0.00 0.00 0.00 30 1004.4
20260503225757 59 319 4.0 8.0 0.00 0.00 0.00 32 1004.4
20260503225252 59 284 3.0 10.0 0.00 0.00 0.00 33 1004.4
20260503224749 58 274 8.0 11.0 0.00 0.00 0.00 33 1004.5
20260503224246 57 287 4.0 10.0 0.00 0.00 0.00 34 1004.5
20260503223744 56 272 2.0 14.0 0.00 0.00 0.00 36 1004.4
20260503223241 57 320 5.0 13.0 0.00 0.00 0.00 35 1004.4
20260503222737 57 283 5.0 7.0 0.00 0.00 0.00 35 1004.4
20260503222235 58 329 2.0 4.0 0.00 0.00 0.00 36 1004.5
20260503221734 59 272 6.0 13.0 0.00 0.00 0.00 33 1004.5
20260503221231 59 295 3.0 7.0 0.00 0.00 0.00 34 1004.4
20260503220727 60 331 5.0 11.0 0.00 0.00 0.00 34 1004.3
20260503220224 58 251 6.0 8.0 0.00 0.00 0.00 34 1004.4
20260503215721 60 325 5.0 10.0 0.00 0.00 0.00 35 1004.3
20260503215218 58 266 4.0 9.0 0.00 0.00 0.00 36 1004.2
20260503214716 58 281 8.0 13.0 0.00 0.00 0.00 36 1004.2
20260503214212 58 262 3.0 8.0 0.00 0.00 0.00 35 1004.2
20260503213711 57 303 7.0 10.0 0.00 0.00 0.00 35 1004.3
20260503213207 57 297 6.0 14.0 0.00 0.00 0.00 36 1004.3
20260503212704 59 278 5.0 9.0 0.00 0.00 0.00 36 1004.3
20260503212202 59 275 5.0 11.0 0.00 0.00 0.00 40 1004.2
20260503211700 59 286 3.0 11.0 0.00 0.00 0.00 41 1004.2
20260503211155 59 248 6.0 9.0 0.00 0.00 0.00 41 1004.3
20260503210651 59 255 6.0 14.0 0.00 0.00 0.00 43 1004.2
20260503210148 59 323 5.0 11.0 0.00 0.00 0.00 46 1004.3
20260503205644 59 284 10.0 13.0 0.00 0.00 0.00 44 1004.2
20260503205140 60 273 5.0 15.0 0.00 0.00 0.00 44 1004.1
20260503204637 60 322 3.0 9.0 0.00 0.00 0.00 49 1004.3
20260503204135 60 279 7.0 14.0 0.00 0.00 0.00 47 1004.2
20260503203631 60 263 9.0 15.0 0.00 0.00 0.00 48 1004.1
20260503203129 60 293 6.0 9.0 0.00 0.00 0.00 50 1004.3
20260503202626 59 243 5.0 14.0 0.00 0.00 0.00 53 1004.2
20260503202124 59 339 8.0 14.0 0.00 0.00 0.00 54 1004.3
20260503201622 60 267 4.0 9.0 0.00 0.00 0.00 54 1004.2
20260503201119 59 255 6.0 9.0 0.00 0.00 0.00 55 1004.2
20260503200615 60 270 8.0 10.0 0.00 0.00 0.00 53 1004.1
20260503200112 60 320 8.0 16.0 0.00 0.00 0.00 54 1004.3
20260503195609 60 286 5.0 14.0 0.00 0.00 0.00 55 1004.1
20260503195106 61 307 10.0 11.0 0.00 0.00 0.00 54 1004.0
20260503194603 59 319 4.0 11.0 0.00 0.00 0.00 55 1004.0
20260503194058 60 265 6.0 10.0 0.00 0.00 0.00 54 1004.1
20260503193555 59 240 3.0 9.0 0.00 0.00 0.00 55 1004.3
20260503193050 60 292 7.0 15.0 0.00 0.00 0.00 56 1004.3
20260503192546 60 287 8.0 15.0 0.00 0.00 0.00 54 1004.2
20260503192042 60 279 6.0 13.0 0.00 0.00 0.00 55 1004.4
20260503191539 60 247 8.0 14.0 0.00 0.00 0.00 54 1004.2
20260503191036 60 352 3.0 13.0 0.00 0.00 0.00 57 1004.2
20260503190533 60 311 6.0 15.0 0.00 0.00 0.00 53 1004.4
20260503190030 61 288 9.0 11.0 0.00 0.00 0.00 53 1004.5
20260503185527 59 282 7.0 14.0 0.00 0.00 0.00 55 1004.4
20260503185026 60 261 6.0 10.0 0.00 0.00 0.00 53 1004.4
20260503184523 60 275 7.0 14.0 0.00 0.00 0.00 55 1004.6
20260503184019 61 269 4.0 15.0 0.00 0.00 0.00 54 1004.6
20260503183516 59 294 9.0 16.0 0.00 0.00 0.00 55 1004.8
20260503183013 61 289 9.0 10.0 0.00 0.00 0.00 53 1004.5
20260503182512 60 269 5.0 8.0 0.00 0.00 0.00 55 1004.4
20260503182009 60 287 3.0 9.0 0.00 0.00 0.00 56 1004.5
20260503181506 60 280 6.0 9.0 0.00 0.00 0.00 54 1004.6
20260503181002 60 289 6.0 10.0 0.00 0.00 0.00 54 1004.6
20260503180500 60 344 4.0 6.0 0.00 0.00 0.00 56 1004.5
20260503175956 61 299 5.0 10.0 0.00 0.00 0.00 55 1004.6
20260503175455 59 278 4.0 9.0 0.00 0.00 0.00 58 1004.9
20260503174950 60 265 9.0 11.0 0.00 0.00 0.00 53 1004.9
20260503174448 60 318 9.0 13.0 0.00 0.00 0.00 54 1005.0